TimeAKST,TemperatureF,Dew PointF,Humidity,Sea Level PressureIn,VisibilityMPH,Wind Direction,Wind SpeedMPH,Gust SpeedMPH,PrecipitationIn,Events,Conditions,WindDirDegrees,DateUTC
12:16 AM,-22.0,-23.8,91,29.68,10.0,Calm,Calm,-,N/A,,Clear,0,2012-12-17 09:16:00
12:36 AM,-20.2,-25.6,76,29.69,10.0,NE,4.6,-,N/A,,Clear,40,2012-12-17 09:36:00
12:56 AM,-20.2,-23.8,83,29.70,10.0,East,4.6,-,N/A,,Clear,80,2012-12-17 09:56:00
1:16 AM,-20.2,-23.8,83,29.71,10.0,Calm,Calm,-,N/A,,Clear,0,2012-12-17 10:16:00
1:36 AM,-20.2,-25.6,76,29.71,10.0,ENE,4.6,-,N/A,,Clear,70,2012-12-17 10:36:00
1:56 AM,-20.2,-23.8,83,29.71,10.0,East,5.8,-,N/A,,Clear,80,2012-12-17 10:56:00
2:16 AM,-18.4,-18.4,100,29.72,10.0,East,5.8,-,N/A,,Clear,80,2012-12-17 11:16:00
2:36 AM,-20.2,-27.4,69,29.73,10.0,ENE,3.5,-,N/A,,Clear,70,2012-12-17 11:36:00
3:16 AM,-18.4,-20.2,91,29.73,10.0,East,5.8,-,N/A,,Clear,80,2012-12-17 12:16:00
3:36 AM,-18.4,-20.2,91,29.73,10.0,East,5.8,-,N/A,,Clear,80,2012-12-17 12:36:00
3:56 AM,-18.4,-25.6,70,29.74,10.0,ENE,4.6,-,N/A,,Clear,60,2012-12-17 12:56:00
4:16 AM,-18.4,-20.2,91,29.74,10.0,ENE,3.5,-,N/A,,Clear,60,2012-12-17 13:16:00
4:36 AM,-20.2,-27.4,69,29.74,10.0,ENE,3.5,-,N/A,,Clear,60,2012-12-17 13:36:00
4:56 AM,-20.2,-29.2,63,29.75,10.0,ENE,4.6,-,N/A,,Clear,70,2012-12-17 13:56:00
5:16 AM,-20.2,-20.2,100,29.75,10.0,ENE,5.8,-,N/A,,Clear,70,2012-12-17 14:16:00
5:36 AM,-20.2,-23.8,83,29.75,10.0,ENE,4.6,-,N/A,,Clear,70,2012-12-17 14:36:00
5:56 AM,-20.2,-29.2,63,29.75,10.0,ENE,4.6,-,N/A,,Clear,70,2012-12-17 14:56:00
6:16 AM,-22.0,-25.6,83,29.75,10.0,ENE,4.6,-,N/A,,Clear,60,2012-12-17 15:16:00
6:36 AM,-20.2,-23.8,83,29.76,10.0,ENE,4.6,-,N/A,,Clear,60,2012-12-17 15:36:00
6:56 AM,-20.2,-22.0,91,29.76,10.0,ENE,4.6,-,N/A,,Clear,70,2012-12-17 15:56:00
7:16 AM,-20.2,-25.6,76,29.77,10.0,NE,3.5,-,N/A,,Clear,50,2012-12-17 16:16:00
7:36 AM,-22.0,-29.2,69,29.76,10.0,ENE,5.8,-,N/A,,Clear,70,2012-12-17 16:36:00
7:56 AM,-20.2,-23.8,83,29.77,10.0,ENE,5.8,-,N/A,,Clear,60,2012-12-17 16:56:00
8:16 AM,-20.2,-23.8,83,29.76,10.0,ENE,4.6,-,N/A,,Clear,60,2012-12-17 17:16:00
8:36 AM,-22.0,-29.2,69,29.77,10.0,ENE,4.6,-,N/A,,Clear,70,2012-12-17 17:36:00
8:56 AM,-18.4,-18.4,100,29.76,10.0,East,6.9,-,N/A,,Clear,80,2012-12-17 17:56:00
9:16 AM,-18.4,-22.0,84,29.77,10.0,Calm,Calm,-,N/A,,Clear,0,2012-12-17 18:16:00
9:36 AM,-20.2,-9999,N/A,29.77,9.0,NE,3.5,-,N/A,,Clear,50,2012-12-17 18:36:00
9:56 AM,-22.0,-9999,N/A,29.77,8.0,Calm,Calm,-,N/A,,Clear,0,2012-12-17 18:56:00
10:16 AM,-23.8,-27.4,83,29.78,10.0,ENE,3.5,-,N/A,,Clear,70,2012-12-17 19:16:00
10:36 AM,-23.8,-27.4,83,29.78,10.0,ENE,5.8,-,N/A,,Clear,70,2012-12-17 19:36:00
10:56 AM,-22.0,-22.0,100,29.78,10.0,ENE,5.8,-,N/A,,Clear,70,2012-12-17 19:56:00
11:16 AM,-20.2,-23.8,83,29.78,10.0,East,4.6,-,N/A,,Clear,80,2012-12-17 20:16:00
11:36 AM,-18.4,-18.4,100,29.77,10.0,ENE,5.8,-,N/A,,Clear,70,2012-12-17 20:36:00
11:56 AM,-18.4,-23.8,76,29.77,10.0,East,6.9,-,N/A,,Clear,80,2012-12-17 20:56:00
12:16 PM,-16.6,-18.4,92,29.78,10.0,ENE,3.5,-,N/A,,Clear,70,2012-12-17 21:16:00
12:36 PM,-16.6,-16.6,100,29.77,10.0,East,6.9,-,N/A,,Clear,80,2012-12-17 21:36:00
12:56 PM,-16.6,-20.2,84,29.77,10.0,East,6.9,-,N/A,,Clear,80,2012-12-17 21:56:00
3:36 PM,-11.2,-18.4,70,29.73,10.0,Calm,Calm,-,N/A,,Clear,0,2012-12-18 00:36:00
3:56 PM,-13.0,-18.4,77,29.73,10.0,Calm,Calm,-,N/A,,Clear,0,2012-12-18 00:56:00
4:16 PM,-13.0,-18.4,77,29.72,10.0,East,4.6,-,N/A,,Clear,90,2012-12-18 01:16:00
4:36 PM,-13.0,-14.8,92,29.72,10.0,East,3.5,-,N/A,,Clear,80,2012-12-18 01:36:00
4:56 PM,-13.0,-16.6,84,29.69,10.0,East,8.1,-,N/A,,Clear,90,2012-12-18 01:56:00
5:16 PM,-11.2,-16.6,77,29.68,10.0,Calm,Calm,-,N/A,,Clear,0,2012-12-18 02:16:00
5:36 PM,-11.2,-16.6,77,29.67,10.0,East,6.9,-,N/A,,Clear,90,2012-12-18 02:36:00
5:56 PM,-13.0,-13.0,100,29.68,10.0,Calm,Calm,-,N/A,,Clear,0,2012-12-18 02:56:00
6:16 PM,-16.6,-27.4,58,29.68,10.0,Calm,Calm,-,N/A,,Clear,0,2012-12-18 03:16:00
6:36 PM,-16.6,-22.0,76,29.68,10.0,East,4.6,-,N/A,,Clear,90,2012-12-18 03:36:00
6:56 PM,-16.6,-16.6,100,29.66,10.0,East,6.9,-,N/A,,Clear,90,2012-12-18 03:56:00
7:16 PM,-13.0,-16.6,84,29.66,10.0,ENE,5.8,-,N/A,,Clear,70,2012-12-18 04:16:00
7:36 PM,-13.0,-14.8,92,29.65,10.0,East,4.6,-,N/A,,Clear,80,2012-12-18 04:36:00
7:56 PM,-13.0,-18.4,77,29.65,10.0,Calm,Calm,-,N/A,,Clear,0,2012-12-18 04:56:00
8:16 PM,-14.8,-18.4,84,29.64,10.0,East,3.5,-,N/A,,Clear,80,2012-12-18 05:16:00
8:36 PM,-18.4,-23.8,76,29.63,10.0,ESE,5.8,-,N/A,,Clear,110,2012-12-18 05:36:00
8:56 PM,-14.8,-14.8,100,29.61,10.0,ENE,4.6,-,N/A,,Clear,70,2012-12-18 05:56:00
9:16 PM,-16.6,-20.2,84,29.61,10.0,Calm,Calm,-,N/A,,Clear,0,2012-12-18 06:16:00
9:36 PM,-16.6,-9999,N/A,29.60,10.0,East,3.5,-,N/A,,Clear,80,2012-12-18 06:36:00
9:56 PM,-14.8,-14.8,100,29.60,10.0,Calm,Calm,-,N/A,,Clear,0,2012-12-18 06:56:00
10:16 PM,-16.6,-20.2,84,29.60,10.0,ENE,3.5,-,N/A,,Clear,70,2012-12-18 07:16:00
10:36 PM,-14.8,-20.2,77,29.58,10.0,East,4.6,-,N/A,,Clear,80,2012-12-18 07:36:00
10:56 PM,-14.8,-14.8,100,29.57,10.0,Calm,Calm,-,N/A,,Clear,0,2012-12-18 07:56:00
11:16 PM,-14.8,-18.4,84,29.57,10.0,ENE,3.5,-,N/A,,Clear,70,2012-12-18 08:16:00
11:36 PM,-14.8,-18.4,84,29.57,10.0,ENE,3.5,-,N/A,,Clear,70,2012-12-18 08:36:00
11:56 PM,-16.6,-22.0,76,29.56,10.0,ENE,3.5,-,N/A,,Partly Cloudy,70,2012-12-18 08:56:00